Home   Weather   Glennallen   Past weeks

Flag for USA Past Weather in Glennallen, Alaska, USA — Yesterday and Last 2 Weeks

31 °F


Feels Like: 26 °F
Forecast: -8 / 12 °F
Wind: 5 mph from North

Location: Gulkana Airport

Current Time: Oct 22, 2016 at 5:22:27 PM

Latest Report: Oct 22, 2016 at 4:53 PM

Visibility: 10 mi

Pressure: 30.16 "Hg

Humidity: 47%

Dew Point: 13 °F

Location of GlennallenLocation

Past Weather in Glennallen — Graph


Glennallen Temperature Yesterday

Maximum temperature yesterday: 28 °F (at 2:53 PM)
Minimum temperature yesterday: 5 °F (at 12:53 AM)
Average temperature yesterday: 20 °F

High & Low Weather Summary for the Past Weeks

High44 °F (Oct 11, 3:53 PM)96% (Oct 11, 6:53 AM)30.36 "Hg (Oct 11, 6:53 AM)
Low2 °F (Oct 19, 5:53 AM)33% (Oct 14, 2:53 PM)29.21 "Hg (Oct 16, 2:04 PM)
Average20 °F75%29.79 "Hg
* Reported Oct 7 3:53 PM — Oct 22 3:53 PM, Glennallen, Weather by CustomWeather, © 2016

Note: Actual official high and low records may vary slightly from our data, if they occured in-between our weather recording intervals... More about our weather records


Glennallen Weather History for the Previous 24 Hours

Scroll right to see more
Time TempWeatherWind HumidityBarometerVisibility
3:53 PM
Sat, Oct 22
31 °FSunny.10 mph47%30.14 "Hg10 mi
2:53 PM31 °FSunny.16 mph47%30.13 "Hg10 mi
1:53 PM31 °FSunny.14 mph47%30.11 "Hg10 mi
12:53 PM29 °FSunny.12 mph49%30.10 "Hg10 mi
11:53 AM27 °FSunny.15 mph51%30.07 "Hg10 mi
10:53 AM25 °FSunny.14 mph55%30.06 "Hg10 mi
9:53 AM22 °FSunny.13 mph62%30.03 "Hg10 mi
8:53 AM22 °FSunny.15 mph62%30.00 "Hg10 mi
7:53 AM21 °FClear.10 mph62%29.97 "Hg10 mi
6:53 AM20 °FClear.12 mph68%29.94 "Hg10 mi
5:53 AM22 °FPassing clouds.12 mph62%29.92 "Hg10 mi
4:53 AM23 °FPassing clouds.12 mph65%29.89 "Hg10 mi
3:53 AM23 °FClear.12 mph65%29.86 "Hg10 mi
2:53 AM24 °FOvercast.10 mph65%29.84 "Hg10 mi
1:53 AM24 °FMostly cloudy.12 mph68%29.82 "Hg10 mi
12:53 AM26 °FOvercast.12 mph71%29.79 "Hg10 mi
11:53 PM
Fri, Oct 21
26 °FOvercast.10 mph74%29.77 "Hg10 mi
10:53 PM25 °FOvercast.10 mph85%29.73 "Hg10 mi
9:53 PM26 °FMostly cloudy.10 mph81%29.71 "Hg10 mi
8:53 PM26 °FMostly cloudy.7 mph84%29.69 "Hg10 mi
7:53 PM26 °FMostly cloudy.6 mph88%29.67 "Hg10 mi
6:53 PM27 °FLight snow. Overcast.7 mph89%29.66 "Hg7 mi
5:53 PM27 °FMostly cloudy.8 mph89%29.65 "Hg10 mi
Weather by CustomWeather, © 2016

See weather overviewHow to use our weather pages